PST,Max TemperatureF,Mean TemperatureF,Min TemperatureF,Max Dew PointF,MeanDew PointF,Min DewpointF,Max Humidity, Mean Humidity, Min Humidity, Max Sea Level PressureIn, Mean Sea Level PressureIn, Min Sea Level PressureIn, Max VisibilityMiles, Mean VisibilityMiles, Min VisibilityMiles, Max Wind SpeedMPH, Mean Wind SpeedMPH, Max Gust SpeedMPH,PrecipitationIn, CloudCover, Events, WindDirDegrees
2012-11-1,62,55,48,49,47,42,89,73,57,30.06,29.92,29.80,10,10,2,15,3,18,0.15,7,Rain,97
2012-11-2,61,53,45,51,47,45,100,80,60,30.15,30.10,30.04,10,5,0,7,2,14,0.00,4,Fog,136
2012-11-3,57,53,49,48,46,44,86,77,67,30.20,30.12,30.05,10,10,10,10,3,13,0.00,6,,86
2012-11-4,60,54,48,51,48,46,93,80,67,30.35,30.30,30.21,10,10,8,8,2,9,0.00,6,,93
2012-11-5,62,55,48,53,50,46,93,80,67,30.30,30.25,30.21,10,10,6,10,1,14,0.00,2,,131
2012-11-6,68,57,46,53,49,45,100,82,63,30.20,30.04,29.89,10,7,1,10,2,16,0.00,1,,97
2012-11-7,58,47,36,51,38,32,93,68,43,30.05,30.00,29.89,10,10,7,26,8,36,T,5,Rain,305
2012-11-8,40,38,35,37,35,31,92,84,76,29.94,29.76,29.69,10,8,4,8,2,15,0.17,7,Rain,198
2012-11-9,44,38,32,36,34,31,92,77,62,29.89,29.82,29.76,10,9,2,12,3,,T,7,Rain,217
2012-11-10,41,35,29,34,28,24,100,80,59,30.25,30.04,29.86,10,10,5,14,5,16,0.00,5,,254
2012-11-11,42,34,25,29,26,22,88,72,55,30.36,30.34,30.26,10,10,10,10,4,17,0.00,6,,79
2012-11-12,47,43,39,34,30,25,65,58,51,30.32,30.27,30.23,10,10,10,28,18,36,T,8,Rain,164
2012-11-13,50,46,42,39,35,32,82,69,56,30.31,30.25,30.19,10,10,7,23,8,31,0.03,7,Rain,141
2012-11-14,48,44,39,43,40,37,100,89,77,30.35,30.26,30.19,10,8,0,6,2,9,0.05,7,Fog-Rain,62
2012-11-15,53,44,35,38,36,34,92,71,50,30.33,30.19,30.02,10,10,10,16,6,20,0.00,1,,116
2012-11-16,50,44,37,40,38,36,92,82,71,30.01,29.97,29.94,10,10,7,9,2,,T,3,,53
2012-11-17,56,49,42,43,40,37,89,75,61,29.93,29.74,29.58,10,10,9,21,5,29,0.09,5,Rain,100
2012-11-18,51,45,39,40,35,32,79,67,54,29.97,29.92,29.81,10,10,10,14,6,17,T,2,,145
2012-11-19,59,51,43,43,39,34,83,65,47,29.93,29.84,29.73,10,10,10,22,6,26,T,7,Rain,116
2012-11-20,56,52,48,48,46,42,93,77,61,29.86,29.77,29.72,10,10,10,14,4,16,0.03,7,Rain,92
2012-11-21,54,47,39,45,36,26,86,61,35,30.26,29.88,29.62,10,9,4,25,9,35,0.18,4,Rain,220
2012-11-22,51,43,35,31,28,26,75,57,39,30.50,30.42,30.27,10,10,10,15,6,18,0.00,0,,110
2012-11-23,54,46,38,37,31,28,76,57,38,30.38,30.24,30.11,10,10,10,20,8,26,0.01,3,Rain,143
2012-11-24,50,45,40,47,44,36,100,83,66,30.19,30.14,30.11,10,6,0,8,2,39,0.40,8,Fog-Rain,272
2012-11-25,45,38,30,37,33,28,92,81,70,30.37,30.28,30.14,10,7,0,9,2,10,T,1,Fog,278
2012-11-26,42,35,28,31,29,27,92,77,62,30.36,30.28,30.21,10,9,2,13,3,17,0.00,3,Snow,72
2012-11-27,46,39,31,34,30,27,89,74,58,30.25,30.18,30.12,10,10,9,14,5,18,0.00,0,Snow,78
2012-11-28,45,39,32,37,33,30,89,77,65,30.10,29.93,29.83,10,10,9,10,7,12,T,4,Rain-Snow,83
2012-11-29,50,43,35,42,38,33,92,82,71,29.91,29.80,29.65,10,10,10,12,4,14,0.01,4,Rain,104
2012-11-30,56,50,44,47,44,42,93,83,72,29.66,29.62,29.56,10,10,5,12,4,28,0.03,6,Rain,96